STARLINK-11674 [DTC]

Last updated on Thu Jul 03 2025 00:02:06 GMT+0000 (Coordinated Universal Time)

1 64327U 25124L 25183.58335648 -.00102521 00000+0 -59164-3 0 9997 2 64327 43.0016 96.9514 0001890 267.6649 223.5523 15.77919132 4629
UTC large
Height (km)
Speed (km/s)
/
Latitude / Longitude
Inclination (degrees)
Orbital Period (minutes)
Azimuth
Elevation
Range (km)
Doppler Factor

Next 0 passes for location: London (51.5072 / 0.1276)

Sorry there are no passes over London.